Wind_Speed
36 37 37 38 38 38 37 38 38 38 38 37 37 37 37 37 36 36 36 36 36 35 34 33 32 32 32 32 32 32 32 32 32 32 31 32 32 32 32 33 33 34 34
36 37 38 38 39 38 39 39 39 40 40 39 39 38 38 38 38 37 37 37 36 35 35 35 34 34 33 32 33 33 33 33 33 33 33 33 33 33 34 34 34 34 35
36 37 38 39 39 39 40 40 41 41 41 41 40 40 39 40 39 38 38 39 38 37 36 36 35 35 34 34 34 34 34 34 34 34 34 35 35 35 35 35 35 35 36
35 37 38 38 39 40 40 40 42 42 42 41 41 41 41 41 41 40 39 39 39 39 38 38 37 37 36 36 35 35 35 36 36 36 36 36 36 36 36 36 37 37 37
35 36 37 38 39 41 41 41 42 43 43 43 42 42 42 42 42 42 41 40 40 40 40 40 39 39 38 37 37 37 37 37 37 37 37 37 37 38 37 37 38 38 38
34 36 37 38 38 39 41 42 42 42 43 43 43 43 43 43 43 43 43 42 42 42 42 42 41 40 39 39 39 39 38 38 38 38 38 38 38 38 38 39 39 40 40
34 35 36 37 37 38 40 41 42 42 42 43 42 42 42 43 43 43 42 43 43 44 44 44 43 42 42 41 41 41 40 40 40 40 40 40 40 40 40 40 40 41 41
33 34 35 36 37 37 38 40 42 42 42 42 42 42 42 43 44 44 42 43 43 44 45 45 44 44 44 44 43 43 42 42 42 41 41 41 42 42 42 42 42 42 43
33 34 35 36 36 37 38 39 41 42 42 42 43 43 43 44 45 45 44 44 43 44 45 45 45 45 45 44 45 45 45 44 44 43 43 43 43 43 42 43 44 44 43
34 34 35 36 37 38 38 40 41 42 42 43 43 43 43 44 44 45 46 46 45 45 45 45 45 46 45 45 45 45 46 46 46 45 45 45 45 44 44 45 45 45 45
34 34 35 36 37 38 39 40 41 41 42 43 43 43 44 44 44 45 46 46 46 45 45 45 45 46 47 47 46 47 47 47 47 47 46 46 46 46 46 46 46 46 46
33 34 34 35 36 37 38 40 40 41 41 42 42 43 43 44 44 44 45 45 46 46 46 46 46 46 46 46 47 48 48 48 48 48 48 48 48 48 47 48 48 48 48
32 33 34 35 36 36 37 39 40 41 41 41 42 42 43 44 45 45 46 45 46 46 46 46 47 47 48 48 47 48 49 49 50 50 50 50 50 50 50 50 50 50 50
32 33 34 35 36 36 37 38 39 40 40 41 41 42 42 43 44 46 47 47 48 48 48 48 49 49 49 49 49 49 50 50 51 51 51 51 51 52 52 51 51 51 52
30 31 31 33 34 35 36 38 39 40 40 41 41 41 41 42 43 45 46 48 49 50 50 50 50 51 51 51 51 51 51 52 52 52 52 52 52 52 53 53 52 52 53
29 30 31 31 33 34 36 37 38 39 40 40 41 42 42 43 43 44 46 47 48 49 50 51 51 51 51 51 52 52 52 52 53 53 53 53 53 53 54 53 53 52 52
29 30 30 31 32 33 34 35 36 38 39 40 41 42 43 43 43 44 45 46 47 48 49 50 50 50 51 52 52 52 52 52 53 53 54 54 54 53 53 53 53 52 52
28 30 30 30 31 32 33 33 34 36 37 39 40 40 41 42 43 43 44 45 46 47 47 48 49 50 51 51 52 52 52 52 52 52 52 53 53 52 52 53 53 53 53
27 29 30 30 31 32 33 34 35 35 36 37 38 38 40 41 43 43 44 44 45 47 47 48 49 50 50 51 51 52 52 53 52 52 53 53 53 53 53 53 53 53 53
28 29 30 30 31 31 32 34 35 36 37 38 38 39 39 40 41 42 43 44 45 46 47 48 49 50 50 51 51 52 52 52 53 52 52 52 52 53 53 53 53 52 52
28 29 30 31 31 31 33 34 35 36 37 38 39 40 40 41 41 42 43 44 45 46 47 48 49 50 50 51 51 52 52 53 52 52 52 52 52 52 52 52 52 52 52
28 29 30 31 32 32 33 34 35 36 37 38 39 40 41 41 42 42 43 43 44 45 46 47 48 49 49 49 50 51 51 51 51 51 51 51 51 52 52 53 52 52 51
29 29 30 31 32 33 34 34 35 36 37 38 39 40 41 42 43 43 43 44 44 45 45 46 46 47 47 48 48 48 49 49 50 50 50 50 50 51 51 51 51 51 51
30 30 31 32 33 33 34 34 35 35 36 37 39 40 40 42 43 44 44 44 44 44 44 44 45 46 46 46 47 47 47 47 48 48 49 49 48 49 49 49 49 50 50
29 30 31 32 33 33 33 34 34 34 34 36 37 38 39 40 41 42 42 42 42 43 43 44 45 44 44 44 45 45 46 46 46 46 46 46 47 47 47 48 48 49 49
29 29 30 30 31 32 32 32 33 33 34 34 35 36 37 37 38 38 39 39 40 41 43 42 42 42 42 43 43 44 44 44 45 45 45 45 45 45 46 46 47 48 48
Wind_Direction
245 244 243 242 241 242 241 240 241 242 242 242 243 244 245 245 245 246 247 248 249 250 250 251 252 253 254 255 256 257 258 259 260 261 260 260 259 261 262 262 262 261 259
246 245 243 243 242 241 241 242 242 242 243 244 244 244 244 245 245 247 248 249 249 249 250 250 251 253 254 255 256 258 258 259 261 261 261 261 261 262 263 263 262 261 261
248 246 245 244 242 241 241 242 242 242 243 243 244 244 245 246 245 246 247 248 248 248 250 251 253 253 253 256 257 257 257 259 260 261 261 261 262 263 264 263 263 262 262
248 247 246 245 243 242 241 243 242 242 242 242 243 244 246 246 245 247 247 246 247 248 250 251 252 254 255 256 257 258 258 258 260 261 262 263 263 264 264 263 263 263 263
249 247 246 245 244 243 242 244 243 242 242 242 243 244 246 246 246 247 248 247 247 249 251 252 253 254 255 255 257 258 259 259 261 262 263 264 265 264 263 263 263 263 264
249 246 245 245 244 243 243 244 243 242 242 243 244 244 246 246 247 248 248 249 249 250 251 251 253 254 254 255 256 257 259 260 261 262 263 265 265 265 265 264 264 264 265
248 246 245 245 245 244 244 243 242 242 242 243 244 246 247 248 248 248 249 250 251 251 251 252 254 254 254 254 256 257 258 260 261 262 262 263 264 266 266 265 265 265 266
248 246 246 245 245 245 246 244 242 242 242 244 246 247 248 249 249 249 250 250 252 253 253 254 255 256 255 254 255 256 259 261 261 261 262 263 265 266 267 267 266 265 266
249 248 248 247 247 246 246 244 242 243 244 245 247 249 249 249 249 249 250 250 251 253 253 254 255 256 256 256 256 257 260 261 261 261 262 264 265 267 268 267 267 266 266
251 250 249 248 248 247 247 244 244 244 245 245 247 249 249 248 249 250 250 251 252 253 253 255 256 256 257 257 258 258 259 261 262 263 263 265 266 268 269 268 267 266 266
253 251 250 249 248 248 249 247 246 245 246 246 248 249 249 250 251 251 251 252 253 254 255 255 256 258 258 259 259 259 260 261 262 263 264 265 266 267 268 269 268 267 267
253 251 250 250 250 249 249 247 247 248 248 248 249 249 250 250 251 251 251 253 254 255 257 257 257 258 259 260 260 261 261 262 262 263 264 265 266 267 267 268 268 268 268
253 253 252 252 250 249 249 248 248 248 249 250 250 251 251 252 251 251 252 254 255 257 258 258 258 258 259 260 261 261 261 261 263 264 265 266 266 266 267 267 268 268 268
255 255 255 254 252 251 251 250 249 250 251 252 253 253 253 254 254 253 252 254 256 258 258 259 259 259 260 260 261 261 261 262 264 264 265 265 266 266 266 267 268 268 268
257 256 256 254 253 253 253 252 251 251 252 253 254 255 256 256 256 255 256 257 257 258 258 259 260 260 260 261 262 262 263 263 263 263 264 265 266 266 266 267 267 268 268
258 257 257 255 254 255 255 254 253 253 254 255 255 256 256 257 258 258 258 258 258 259 259 259 260 260 261 262 262 263 263 263 263 264 264 265 265 266 266 267 268 269 269
258 256 257 256 255 255 256 256 256 254 255 255 256 257 257 258 259 259 259 258 259 259 259 259 260 260 261 262 262 262 263 264 264 264 264 265 266 267 267 267 267 268 268
260 257 257 257 256 256 255 255 257 256 255 256 257 258 258 259 259 260 260 259 259 259 260 260 260 261 262 262 263 263 263 263 264 264 264 265 265 265 266 267 268 269 269
262 259 257 256 256 256 256 256 257 257 258 258 259 260 260 260 260 261 261 261 261 260 260 260 261 261 263 263 264 264 264 264 264 265 265 265 265 265 266 267 269 269 269
263 261 259 258 258 258 258 258 258 258 259 260 260 261 262 262 262 262 263 263 263 263 263 263 262 262 263 265 265 265 265 265 265 266 266 266 267 267 267 267 268 268 268
264 262 261 261 260 261 261 261 260 260 261 261 261 262 263 264 264 264 265 265 265 265 265 264 264 264 264 265 265 265 265 265 266 266 266 267 267 267 267 267 267 267 268
265 264 263 263 263 263 263 262 262 262 262 263 263 263 264 264 264 265 265 266 266 267 267 266 265 264 265 265 266 265 265 265 265 265 266 266 266 266 266 266 267 267 267
267 267 266 265 266 265 265 264 264 263 263 264 264 265 265 265 264 265 266 266 266 267 267 266 266 265 265 265 265 266 266 266 266 266 266 266 266 266 266 266 266 266 267
271 269 268 266 267 267 268 267 266 265 265 265 265 266 266 266 265 264 266 267 267 267 267 267 266 266 265 265 264 265 265 265 266 266 265 266 266 266 266 265 265 266 266
273 273 271 269 268 268 269 268 267 267 267 267 267 268 268 267 266 266 266 267 267 267 266 266 265 265 266 266 266 265 265 265 265 265 265 265 266 267 267 267 266 266 267
275 275 273 271 270 269 269 269 269 267 267 268 267 268 268 267 266 267 267 268 268 268 266 266 266 266 266 266 266 266 265 265 265 265 266 266 267 267 268 267 267 267 267
Height
5685 5687 5690 5692 5695 5698 5700 5703 5706 5709 5711 5714 5716 5719 5721 5723 5725 5727 5729 5731 5732 5734 5736 5737 5739 5740 5741 5742 5742 5743 5744 5745 5745 5746 5746 5746 5747 5747 5747 5747 5748 5748 5748
5675 5678 5680 5683 5685 5688 5691 5694 5697 5700 5702 5705 5708 5710 5712 5714 5716 5718 5720 5722 5724 5726 5728 5729 5730 5732 5733 5734 5735 5735 5736 5737 5737 5738 5738 5739 5739 5739 5739 5739 5739 5739 5739
5666 5668 5671 5673 5676 5678 5681 5684 5687 5690 5692 5695 5698 5700 5702 5705 5707 5709 5711 5713 5715 5717 5719 5721 5722 5723 5725 5726 5727 5727 5728 5729 5729 5730 5731 5731 5731 5731 5730 5730 5730 5730 5730
5656 5658 5660 5663 5665 5668 5671 5674 5676 5679 5682 5685 5688 5691 5693 5695 5698 5700 5702 5704 5706 5708 5710 5712 5713 5715 5716 5717 5718 5719 5720 5720 5721 5721 5721 5722 5722 5722 5721 5721 5721 5721 5721
5646 5647 5650 5652 5655 5658 5661 5663 5666 5669 5672 5675 5678 5680 5683 5686 5688 5690 5693 5695 5697 5699 5701 5703 5704 5705 5707 5708 5709 5710 5711 5711 5712 5712 5712 5712 5712 5712 5712 5712 5711 5711 5711
5636 5638 5640 5642 5645 5647 5650 5653 5655 5658 5662 5665 5668 5670 5673 5675 5678 5680 5683 5685 5687 5689 5691 5693 5694 5696 5697 5699 5700 5701 5701 5702 5703 5703 5703 5703 5703 5703 5702 5702 5702 5702 5702
5627 5628 5630 5632 5635 5637 5640 5642 5645 5648 5651 5655 5657 5660 5662 5665 5668 5670 5672 5675 5677 5679 5681 5683 5684 5686 5687 5689 5690 5691 5692 5692 5693 5693 5693 5693 5693 5693 5693 5692 5692 5692 5691
5617 5619 5621 5623 5624 5627 5629 5632 5635 5638 5641 5644 5647 5650 5652 5655 5658 5660 5662 5664 5667 5668 5670 5672 5674 5675 5677 5678 5679 5680 5681 5682 5682 5683 5683 5683 5683 5682 5682 5682 5682 5681 5681
5607 5609 5611 5613 5615 5617 5619 5622 5625 5628 5631 5634 5636 5639 5642 5645 5647 5649 5651 5654 5655 5657 5659 5661 5663 5664 5666 5667 5669 5670 5670 5671 5671 5672 5672 5672 5672 5671 5671 5670 5670 5671 5671
5598 5599 5601 5603 5604 5606 5609 5611 5614 5617 5620 5623 5626 5629 5631 5633 5636 5638 5640 5643 5645 5646 5648 5650 5652 5653 5654 5656 5657 5658 5659 5660 5660 5660 5661 5660 5660 5660 5659 5659 5659 5659 5659
5588 5590 5592 5593 5595 5597 5599 5601 5604 5606 5609 5612 5615 5617 5620 5622 5625 5627 5629 5631 5633 5635 5637 5638 5640 5642 5643 5644 5645 5646 5647 5648 5648 5648 5649 5648 5648 5648 5648 5647 5646 5646 5646
5579 5581 5582 5584 5585 5587 5589 5591 5594 5596 5599 5601 5603 5606 5608 5611 5613 5615 5617 5619 5621 5623 5625 5626 5628 5630 5631 5632 5633 5634 5634 5635 5635 5636 5636 5636 5636 5636 5635 5635 5634 5634 5634
5569 5571 5572 5574 5576 5578 5579 5581 5583 5586 5588 5590 5592 5595 5597 5599 5601 5604 5606 5607 5609 5611 5612 5614 5615 5617 5618 5619 5620 5621 5621 5622 5622 5623 5623 5623 5623 5622 5622 5622 5621 5621 5620
5560 5561 5563 5564 5566 5568 5569 5571 5573 5575 5577 5580 5582 5584 5586 5588 5589 5591 5593 5595 5596 5598 5600 5601 5603 5604 5605 5606 5606 5607 5608 5608 5609 5609 5609 5609 5609 5609 5608 5608 5608 5607 5606
5551 5552 5554 5555 5556 5558 5559 5561 5563 5565 5567 5569 5571 5573 5574 5576 5577 5579 5580 5582 5583 5585 5587 5588 5589 5590 5591 5592 5592 5593 5594 5594 5594 5594 5595 5595 5594 5594 5594 5594 5594 5593 5592
5542 5543 5544 5545 5547 5548 5550 5551 5552 5554 5556 5558 5559 5561 5563 5564 5565 5566 5567 5569 5570 5571 5573 5574 5575 5576 5577 5577 5578 5579 5579 5579 5579 5580 5580 5580 5580 5579 5579 5579 5579 5579 5578
5533 5534 5535 5536 5537 5538 5540 5541 5542 5543 5545 5546 5548 5549 5551 5552 5553 5554 5555 5556 5557 5558 5559 5560 5561 5562 5562 5563 5563 5564 5564 5564 5564 5564 5565 5565 5565 5564 5564 5564 5564 5564 5563
5524 5525 5526 5527 5528 5528 5529 5530 5532 5533 5534 5535 5536 5537 5538 5539 5540 5541 5542 5542 5543 5544 5545 5546 5547 5548 5548 5548 5549 5549 5549 5549 5549 5549 5549 5550 5550 5549 5549 5549 5549 5549 5549
5515 5515 5516 5517 5518 5519 5520 5521 5521 5522 5523 5524 5525 5526 5527 5527 5528 5529 5529 5530 5530 5531 5532 5532 5533 5533 5534 5534 5534 5534 5534 5534 5534 5534 5534 5534 5534 5535 5534 5534 5535 5534 5534
5506 5506 5507 5508 5508 5509 5510 5511 5511 5512 5513 5513 5514 5515 5515 5516 5516 5516 5517 5517 5517 5517 5518 5518 5518 5519 5519 5519 5519 5519 5519 5519 5519 5519 5519 5519 5519 5519 5518 5519 5519 5519 5519
5497 5498 5498 5498 5499 5499 5500 5500 5501 5501 5502 5502 5503 5503 5504 5504 5504 5504 5504 5504 5504 5504 5504 5504 5504 5504 5504 5504 5504 5503 5503 5503 5503 5503 5503 5504 5503 5503 5503 5503 5504 5504 5504
5489 5488 5489 5489 5489 5489 5490 5490 5490 5490 5490 5491 5491 5491 5491 5491 5491 5491 5491 5490 5490 5490 5489 5489 5489 5489 5489 5489 5489 5488 5488 5488 5488 5488 5488 5488 5488 5488 5488 5488 5489 5489 5489
5479 5479 5479 5479 5479 5479 5479 5479 5479 5479 5479 5479 5479 5478 5478 5478 5478 5478 5478 5477 5477 5476 5476 5475 5475 5475 5474 5474 5474 5474 5473 5473 5473 5473 5473 5473 5473 5473 5473 5473 5474 5474 5474
5470 5469 5469 5468 5468 5468 5468 5468 5468 5467 5467 5467 5467 5466 5466 5465 5465 5465 5464 5464 5463 5462 5462 5461 5461 5461 5460 5460 5459 5459 5459 5459 5458 5458 5458 5458 5458 5458 5458 5459 5459 5459 5459
5460 5459 5459 5458 5458 5458 5457 5457 5457 5456 5456 5455 5455 5454 5454 5453 5452 5452 5451 5450 5450 5449 5448 5448 5447 5447 5447 5446 5445 5445 5445 5445 5445 5444 5444 5444 5444 5444 5444 5444 5444 5444 5444
5450 5449 5448 5448 5447 5447 5446 5446 5445 5445 5445 5444 5443 5443 5442 5441 5440 5439 5438 5437 5437 5435 5435 5434 5434 5433 5433 5432 5432 5431 5431 5430 5430 5430 5430 5430 5430 5430 5430 5430 5430 5430 5430